Time,TemperatureF,DewpointF,PressureIn,WindDirection,WindDirectionDegrees,WindSpeedMPH,WindSpeedGustMPH,Humidity,HourlyPrecipIn,Conditions,Clouds,dailyrainin,SolarRadiationWatts/m^2,SoftwareType,DateUTC
2013-06-15 00:01:00,50.0,49.0,-100.00,North,0,0.0,2.0,97,0.00,,,0.02,0.000000,,2013-06-15 07:01:00,
2013-06-15 00:11:00,50.0,49.0,-100.00,North,0,0.0,2.0,97,0.00,,,0.02,0.000000,,2013-06-15 07:11:00,
2013-06-15 00:23:00,50.0,49.0,-100.00,North,0,0.0,2.0,97,0.00,,,0.02,0.000000,,2013-06-15 07:23:00,
2013-06-15 00:33:00,48.0,48.0,-100.00,North,358,0.0,0.0,99,0.00,,,0.02,0.000000,,2013-06-15 07:33:00,
2013-06-15 00:53:00,48.0,48.0,-100.00,North,358,0.0,0.0,99,0.00,,,0.02,0.000000,,2013-06-15 07:53:00,
2013-06-15 01:02:00,48.0,48.0,-100.00,North,358,0.0,0.0,99,0.00,,,0.02,0.000000,,2013-06-15 08:02:00,
2013-06-15 01:11:00,48.0,48.0,-100.00,North,358,0.0,0.0,99,0.00,,,0.02,0.000000,,2013-06-15 08:11:00,
2013-06-15 01:22:00,48.0,48.0,-100.00,North,358,0.0,0.0,99,0.00,,,0.02,0.000000,,2013-06-15 08:22:00,
2013-06-15 01:33:00,47.0,47.0,-100.00,East,97,0.0,2.0,99,0.00,,,0.02,0.000000,,2013-06-15 08:33:00,
2013-06-15 01:53:00,47.0,47.0,-100.00,East,97,0.0,2.0,99,0.00,,,0.02,0.000000,,2013-06-15 08:53:00,
2013-06-15 02:02:00,47.0,47.0,-100.00,East,97,0.0,2.0,99,0.00,,,0.02,0.000000,,2013-06-15 09:02:00,
2013-06-15 02:12:00,47.0,47.0,-100.00,East,97,0.0,2.0,99,0.00,,,0.02,0.000000,,2013-06-15 09:12:00,
2013-06-15 02:22:00,47.0,47.0,-100.00,East,97,0.0,2.0,99,0.00,,,0.02,0.000000,,2013-06-15 09:22:00,
2013-06-15 02:33:00,47.0,47.0,-100.00,ESE,112,1.0,3.0,99,0.00,,,0.02,0.000000,,2013-06-15 09:33:00,
2013-06-15 03:02:00,47.0,47.0,-100.00,ESE,112,1.0,3.0,99,0.00,,,0.02,0.000000,,2013-06-15 10:02:00,
2013-06-15 03:11:00,47.0,47.0,-100.00,ESE,112,1.0,3.0,99,0.00,,,0.02,0.000000,,2013-06-15 10:11:00,
2013-06-15 03:23:00,47.0,47.0,-100.00,ESE,112,1.0,3.0,99,0.00,,,0.02,0.000000,,2013-06-15 10:23:00,
2013-06-15 03:33:00,47.0,47.0,-100.00,ENE,72,0.0,3.0,99,0.00,,,0.02,0.000000,,2013-06-15 10:33:00,
2013-06-15 04:01:00,47.0,47.0,-100.00,ENE,72,0.0,3.0,99,0.00,,,0.02,0.000000,,2013-06-15 11:01:00,
2013-06-15 04:11:00,47.0,47.0,-100.00,ENE,72,0.0,3.0,99,0.00,,,0.02,0.000000,,2013-06-15 11:11:00,
2013-06-15 04:22:00,47.0,47.0,-100.00,ENE,72,0.0,3.0,99,0.00,,,0.02,0.000000,,2013-06-15 11:22:00,
2013-06-15 04:33:00,46.0,45.0,-100.00,SSE,149,0.0,5.0,98,0.00,,,0.01,0.000000,,2013-06-15 11:33:00,
2013-06-15 05:01:00,46.0,45.0,-100.00,SSE,149,0.0,5.0,98,0.00,,,0.01,0.000000,,2013-06-15 12:01:00,
2013-06-15 05:11:00,46.0,45.0,-100.00,SSE,149,0.0,5.0,98,0.00,,,0.01,0.000000,,2013-06-15 12:11:00,
2013-06-15 05:22:00,46.0,45.0,-100.00,SSE,149,0.0,5.0,98,0.00,,,0.01,0.000000,,2013-06-15 12:22:00,
2013-06-15 06:02:00,44.0,44.0,-100.00,SE,134,0.0,3.0,99,0.00,,,0.01,4.000000,,2013-06-15 13:02:00,
2013-06-15 06:11:00,44.0,44.0,-100.00,SE,134,0.0,3.0,99,0.00,,,0.01,4.000000,,2013-06-15 13:11:00,
2013-06-15 06:22:00,44.0,44.0,-100.00,SE,134,0.0,3.0,99,0.00,,,0.01,4.000000,,2013-06-15 13:22:00,
2013-06-15 06:32:00,44.0,44.0,-100.00,SE,134,0.0,3.0,99,0.00,,,0.01,4.000000,,2013-06-15 13:32:00,
2013-06-15 06:33:00,48.0,47.0,-100.00,East,98,0.0,3.0,97,0.00,,,0.00,56.000000,,2013-06-15 13:33:00,
2013-06-15 07:01:00,48.0,47.0,-100.00,East,98,0.0,3.0,97,0.00,,,0.00,56.000000,,2013-06-15 14:01:00,
2013-06-15 07:12:00,48.0,47.0,-100.00,East,98,0.0,3.0,97,0.00,,,0.00,56.000000,,2013-06-15 14:12:00,
2013-06-15 07:22:00,48.0,47.0,-100.00,East,98,0.0,3.0,97,0.00,,,0.00,56.000000,,2013-06-15 14:22:00,
2013-06-15 07:33:00,54.0,50.0,-100.00,ENE,66,1.0,6.0,85,0.00,,,0.00,205.000000,,2013-06-15 14:33:00,
2013-06-15 08:01:00,54.0,50.0,-100.00,ENE,66,1.0,6.0,85,0.00,,,0.00,205.000000,,2013-06-15 15:01:00,
2013-06-15 08:11:00,54.0,50.0,-100.00,ENE,66,1.0,6.0,85,0.00,,,0.00,205.000000,,2013-06-15 15:11:00,
2013-06-15 08:22:00,54.0,50.0,-100.00,ENE,66,1.0,6.0,85,0.00,,,0.00,205.000000,,2013-06-15 15:22:00,
2013-06-15 08:33:00,60.0,52.0,-100.00,ENE,77,1.0,4.0,75,0.00,,,0.00,352.000000,,2013-06-15 15:33:00,
2013-06-15 09:01:00,60.0,52.0,-100.00,ENE,77,1.0,4.0,75,0.00,,,0.00,352.000000,,2013-06-15 16:01:00,
2013-06-15 09:22:00,60.0,52.0,-100.00,ENE,77,1.0,4.0,75,0.00,,,0.00,352.000000,,2013-06-15 16:22:00,
2013-06-15 10:01:00,63.0,52.0,-100.00,NNW,332,2.0,4.0,67,0.00,,,0.00,467.000000,,2013-06-15 17:01:00,
2013-06-15 10:11:00,63.0,52.0,-100.00,NNW,332,2.0,4.0,67,0.00,,,0.00,467.000000,,2013-06-15 17:11:00,
2013-06-15 10:21:00,63.0,52.0,-100.00,NNW,332,2.0,4.0,67,0.00,,,0.00,467.000000,,2013-06-15 17:21:00,
2013-06-15 10:32:00,63.0,52.0,-100.00,NNW,332,2.0,4.0,67,0.00,,,0.00,467.000000,,2013-06-15 17:32:00,
2013-06-15 15:53:00,75.0,55.0,-100.00,WSW,244,3.0,9.0,49,-99.99,,,0.00,585.000000,,2013-06-15 22:53:00,
2013-06-15 19:53:00,70.0,50.0,-100.00,West,265,3.0,9.0,49,-99.99,,,0.00,264.000000,,2013-06-16 02:53:00,
2013-06-15 20:02:00,70.0,50.0,-100.00,West,265,3.0,9.0,49,-99.99,,,0.00,264.000000,,2013-06-16 03:02:00,
2013-06-15 20:33:00,62.0,49.0,-100.00,SW,231,0.0,10.0,63,-99.99,,,0.00,70.000000,,2013-06-16 03:33:00,
2013-06-15 20:53:00,62.0,49.0,-100.00,SW,231,0.0,10.0,63,-99.99,,,0.00,70.000000,,2013-06-16 03:53:00,
2013-06-15 21:01:00,62.0,49.0,-100.00,SW,231,0.0,10.0,63,-99.99,,,0.00,70.000000,,2013-06-16 04:01:00,
2013-06-15 21:12:00,62.0,49.0,-100.00,SW,231,0.0,10.0,63,-99.99,,,0.00,70.000000,,2013-06-16 04:12:00,
2013-06-15 21:23:00,62.0,49.0,-100.00,SW,231,0.0,10.0,63,-99.99,,,0.00,70.000000,,2013-06-16 04:23:00,
2013-06-15 21:33:00,58.0,49.0,-100.00,WSW,243,0.0,3.0,72,0.00,,,0.00,16.000000,,2013-06-16 04:33:00,
2013-06-15 21:53:00,58.0,49.0,-100.00,WSW,243,0.0,3.0,72,0.00,,,0.00,16.000000,,2013-06-16 04:53:00,
2013-06-15 22:01:00,58.0,49.0,-100.00,WSW,243,0.0,3.0,72,0.00,,,0.00,16.000000,,2013-06-16 05:01:00,
2013-06-15 22:11:00,58.0,49.0,-100.00,WSW,243,0.0,3.0,72,0.00,,,0.00,16.000000,,2013-06-16 05:11:00,
2013-06-15 22:22:00,58.0,49.0,-100.00,WSW,243,0.0,3.0,72,0.00,,,0.00,16.000000,,2013-06-16 05:22:00,
2013-06-15 22:33:00,56.0,49.0,-100.00,ESE,109,0.0,2.0,78,0.00,,,0.00,1.000000,,2013-06-16 05:33:00,
2013-06-15 22:52:00,56.0,49.0,-100.00,ESE,109,0.0,2.0,78,0.00,,,0.00,1.000000,,2013-06-16 05:52:00,
2013-06-15 23:01:00,56.0,49.0,-100.00,ESE,109,0.0,2.0,78,0.00,,,0.00,1.000000,,2013-06-16 06:01:00,
2013-06-15 23:11:00,56.0,49.0,-100.00,ESE,109,0.0,2.0,78,0.00,,,0.00,1.000000,,2013-06-16 06:11:00,
2013-06-15 23:22:00,56.0,49.0,-100.00,ESE,109,0.0,2.0,78,0.00,,,0.00,1.000000,,2013-06-16 06:22:00,